Location: Karcze
(52.0945°N, 22.4786°E)
Time: 18:51:00
(UTC+00:00)

Transit 2A Rocket - Pass Details

Date: 31 July 2021
Orbit: 586 x 917 km, 66.7° (Epoch: 26 September)

Event Time Altitude Azimuth Distance (km) Brightness Sun altitude
Rises 18:03:34 0° 312° (NW) 3,096 10.1 1.6°
Reaches altitude 10° 18:06:32 10° 331° (NNW) 2,241 8.5 1.2°
Maximum altitude 18:10:08 19° 16° (NNE) 1,790 7.1 0.7°
Drops below altitude 10° 18:13:57 10° 60° (ENE) 2,396 7.3 0.2°
Sets 18:17:15 0° 78° (ENE) 3,392 7.9 -0.2°
